| time (UTC) | temp C | wind direction | speed KPH | gust KPH | rain 1hr cm | rain 24hr cm | rain mn cm | humidity % | barometer mb |
| 20260506044547 | 13 | 223 | 3.2 | 6.4 | 0.00 | 0.08 | 0.08 | 43 | 1017.0 |
| 20260506043047 | 13 | 218 | 0.0 | 9.7 | 0.00 | 0.08 | 0.08 | 45 | 1016.7 |
| 20260506041549 | 13 | 136 | 0.0 | 4.8 | 0.00 | 0.08 | 0.08 | 45 | 1016.7 |
| 20260506040041 | 13 | 104 | 1.6 | 6.4 | 0.00 | 0.08 | 0.08 | 44 | 1016.5 |
| 20260506034541 | 14 | 126 | 3.2 | 9.7 | 0.00 | 0.08 | 0.08 | 44 | 1016.3 |
| 20260506033048 | 15 | 97 | 3.2 | 19.3 | 0.00 | 0.08 | 0.08 | 43 | 1016.1 |
| 20260506031545 | 15 | 107 | 12.9 | 30.6 | 0.00 | 0.08 | 0.08 | 42 | 1015.8 |
| 20260506030044 | 15 | 121 | 8.0 | 19.3 | 0.00 | 0.08 | 0.08 | 41 | 1015.4 |
| 20260506024545 | 16 | 77 | 8.0 | 17.7 | 0.00 | 0.08 | 0.08 | 35 | 1015.2 |
| 20260506023100 | 16 | 97 | 11.3 | 25.7 | 0.00 | 0.08 | 0.08 | 34 | 1014.9 |
| 20260506021608 | 16 | 125 | 11.3 | 25.7 | 0.00 | 0.08 | 0.08 | 33 | 1014.6 |
| 20260506020045 | 17 | 69 | 11.3 | 24.1 | 0.00 | 0.08 | 0.08 | 33 | 1014.3 |
| 20260506014545 | 17 | 66 | 14.5 | 32.2 | 0.00 | 0.08 | 0.08 | 31 | 1014.1 |
| 20260506013101 | 18 | 82 | 12.9 | 25.7 | 0.00 | 0.08 | 0.08 | 28 | 1014.1 |
| 20260506011551 | 18 | 76 | 17.7 | 38.6 | 0.00 | 0.08 | 0.08 | 27 | 1013.9 |
| 20260506010057 | 19 | 39 | 14.5 | 32.2 | 0.00 | 0.08 | 0.08 | 25 | 1013.7 |
| 20260506004548 | 19 | 88 | 19.3 | 38.6 | 0.00 | 0.08 | 0.08 | 27 | 1013.6 |
| 20260506003047 | 20 | 80 | 19.3 | 37.0 | 0.00 | 0.08 | 0.08 | 27 | 1013.4 |
| 20260506001547 | 20 | 105 | 22.5 | 38.6 | 0.00 | 0.08 | 0.08 | 28 | 1013.5 |
| 20260506000049 | 20 | 55 | 19.3 | 40.2 | 0.00 | 0.08 | 0.08 | 26 | 1013.4 |
| 20260505234552 | 20 | 61 | 22.5 | 40.2 | 0.00 | 0.08 | 0.08 | 26 | 1013.5 |
| 20260505233050 | 21 | 91 | 22.5 | 43.5 | 0.00 | 0.08 | 0.08 | 27 | 1013.3 |
| 20260505231606 | 21 | 84 | 25.7 | 45.1 | 0.00 | 0.08 | 0.08 | 25 | 1013.2 |
| 20260505230053 | 21 | 85 | 17.7 | 35.4 | 0.00 | 0.08 | 0.08 | 26 | 1013.2 |
| 20260505224556 | 22 | 34 | 16.1 | 37.0 | 0.00 | 0.08 | 0.08 | 25 | 1013.2 |
| 20260505223102 | 22 | 65 | 19.3 | 33.8 | 0.00 | 0.08 | 0.08 | 26 | 1013.4 |
| 20260505221544 | 22 | 29 | 12.9 | 43.5 | 0.00 | 0.08 | 0.08 | 27 | 1013.5 |
| 20260505220058 | 21 | 41 | 22.5 | 40.2 | 0.00 | 0.08 | 0.08 | 26 | 1013.8 |
| 20260505214555 | 21 | 101 | 24.1 | 46.7 | 0.00 | 0.08 | 0.08 | 28 | 1013.7 |
| 20260505213045 | 21 | 346 | 22.5 | 43.5 | 0.00 | 0.08 | 0.08 | 27 | 1014.2 |
| 20260505211544 | 21 | 296 | 20.9 | 38.6 | 0.00 | 0.08 | 0.08 | 30 | 1014.2 |
| 20260505210045 | 21 | 84 | 22.5 | 35.4 | 0.00 | 0.08 | 0.08 | 29 | 1014.4 |
| 20260505204542 | 21 | 59 | 20.9 | 41.8 | 0.00 | 0.08 | 0.08 | 31 | 1014.5 |
| 20260505203103 | 21 | 53 | 24.1 | 33.8 | 0.00 | 0.08 | 0.08 | 32 | 1014.5 |
| 20260505201543 | 21 | 53 | 22.5 | 40.2 | 0.00 | 0.08 | 0.08 | 32 | 1014.6 |
| 20260505200052 | 21 | 77 | 22.5 | 38.6 | 0.00 | 0.08 | 0.08 | 34 | 1014.6 |
| 20260505194545 | 20 | 36 | 16.1 | 46.7 | 0.00 | 0.08 | 0.08 | 33 | 1014.7 |
| 20260505193043 | 21 | 74 | 22.5 | 38.6 | 0.00 | 0.08 | 0.08 | 35 | 1014.9 |
| 20260505191605 | 20 | 42 | 22.5 | 45.1 | 0.00 | 0.08 | 0.08 | 37 | 1015.0 |
| 20260505190049 | 20 | 351 | 17.7 | 40.2 | 0.00 | 0.08 | 0.08 | 38 | 1015.4 |
| 20260505184547 | 20 | 105 | 16.1 | 38.6 | 0.00 | 0.08 | 0.08 | 37 | 1015.5 |
| 20260505183043 | 20 | 63 | 14.5 | 38.6 | 0.00 | 0.08 | 0.08 | 39 | 1015.7 |
| 20260505181547 | 19 | 86 | 16.1 | 33.8 | 0.00 | 0.08 | 0.08 | 43 | 1015.7 |
| 20260505180047 | 18 | 22 | 19.3 | 33.8 | 0.00 | 0.08 | 0.08 | 42 | 1015.8 |
| 20260505174543 | 18 | 24 | 17.7 | 32.2 | 0.00 | 0.08 | 0.08 | 45 | 1015.8 |
| 20260505173047 | 18 | 92 | 14.5 | 29.0 | 0.00 | 0.08 | 0.08 | 48 | 1016.1 |
| 20260505171548 | 17 | 348 | 4.8 | 24.1 | 0.00 | 0.08 | 0.08 | 52 | 1016.2 |
| 20260505164547 | 16 | 330 | 1.6 | 12.9 | 0.00 | 0.08 | 0.08 | 60 | 1016.3 |
| 20260505163052 | 16 | 32 | 6.4 | 24.1 | 0.00 | 0.08 | 0.08 | 54 | 1016.1 |
| 20260505161547 | 16 | 54 | 6.4 | 24.1 | 0.00 | 0.08 | 0.08 | 56 | 1016.0 |
| 20260505153047 | 15 | 46 | 9.7 | 35.4 | 0.00 | 0.08 | 0.08 | 59 | 1015.8 |
| 20260505151556 | 15 | 69 | 6.4 | 20.9 | 0.00 | 0.08 | 0.08 | 61 | 1015.8 |
| 20260505124543 | 11 | 0 | 0.0 | 3.2 | 0.05 | 0.05 | 0.05 | 83 | 1014.7 |
| 20260505123045 | 12 | 0 | 1.6 | 6.4 | 0.03 | 0.03 | 0.03 | 81 | 1014.2 |
| 20260505121555 | 12 | 0 | 0.0 | 1.6 | 0.00 | 0.00 | 0.00 | 79 | 1014.9 |
| 20260505120048 | 12 | 306 | 0.0 | 4.8 | 0.00 | 0.00 | 0.00 | 78 | 1015.0 |
| 20260505114546 | 12 | 245 | 3.2 | 11.3 | 0.00 | 0.00 | 0.00 | 75 | 1014.8 |
| 20260505113043 | 12 | 0 | 1.6 | 4.8 | 0.00 | 0.00 | 0.00 | 67 | 1015.3 |
| 20260505111545 | 12 | 0 | 1.6 | 6.4 | 0.00 | 0.00 | 0.00 | 69 | 1015.5 |
| 20260505101554 | 13 | 98 | 1.6 | 9.7 | 0.00 | 0.00 | 0.00 | 57 | 1016.1 |
| 20260505100046 | 13 | 0 | 3.2 | 11.3 | 0.00 | 0.00 | 0.00 | 49 | 1016.4 |
| 20260505094545 | 14 | 85 | 1.6 | 6.4 | 0.00 | 0.00 | 0.00 | 54 | 1016.5 |
| 20260505093045 | 14 | 0 | 1.6 | 8.0 | 0.00 | 0.00 | 0.00 | 52 | 1016.8 |
| 20260505091542 | 15 | 171 | 4.8 | 12.9 | 0.00 | 0.00 | 0.00 | 50 | 1016.9 |
| 20260505090101 | 15 | 150 | 6.4 | 12.9 | 0.00 | 0.00 | 0.00 | 49 | 1017.1 |
| 20260505084551 | 15 | 148 | 4.8 | 16.1 | 0.00 | 0.00 | 0.00 | 48 | 1017.3 |
| 20260505083052 | 15 | 169 | 3.2 | 9.7 | 0.00 | 0.00 | 0.00 | 45 | 1017.3 |
| 20260505081546 | 15 | 220 | 1.6 | 16.1 | 0.00 | 0.00 | 0.00 | 40 | 1017.7 |
| 20260505080042 | 15 | 150 | 4.8 | 9.7 | 0.00 | 0.00 | 0.00 | 37 | 1017.4 |
| 20260505074542 | 15 | 163 | 0.0 | 4.8 | 0.00 | 0.00 | 0.00 | 35 | 1017.6 |
| 20260505073046 | 16 | 156 | 4.8 | 11.3 | 0.00 | 0.00 | 0.00 | 35 | 1018.0 |
| 20260505071545 | 16 | 162 | 3.2 | 12.9 | 0.00 | 0.00 | 0.00 | 33 | 1017.7 |
| 20260505070046 | 16 | 264 | 0.0 | 3.2 | 0.00 | 0.00 | 0.00 | 31 | 1017.8 |
| 20260505064544 | 15 | 0 | 0.0 | 1.6 | 0.00 | 0.00 | 0.00 | 35 | 1017.9 |
| 20260505063044 | 15 | 0 | 0.0 | 0.0 | 0.00 | 0.00 | 0.00 | 35 | 1017.9 |
| 20260505061549 | 15 | 0 | 0.0 | 3.2 | 0.00 | 0.00 | 0.00 | 34 | 1017.9 |